TimeMST,TemperatureF,Dew PointF,Humidity,Sea Level PressureIn,VisibilityMPH,Wind Direction,Wind SpeedMPH,Gust SpeedMPH,PrecipitationIn,Events,Conditions,WindDirDegrees,DateUTC
12:52 AM,21.9,6.1,51,30.50,10.0,North,8.1,-,N/A,,Scattered Clouds,350,2012-12-21 07:52:00
1:52 AM,21.0,5.0,50,30.50,10.0,NNW,3.5,-,N/A,,Partly Cloudy,330,2012-12-21 08:52:00
2:52 AM,17.1,5.0,59,30.51,10.0,South,3.5,-,N/A,,Partly Cloudy,170,2012-12-21 09:52:00
3:52 AM,19.0,5.0,54,30.49,10.0,North,5.8,-,N/A,,Clear,360,2012-12-21 10:52:00
4:52 AM,19.0,6.1,57,30.48,10.0,North,4.6,-,N/A,,Partly Cloudy,10,2012-12-21 11:52:00
5:52 AM,19.0,1.0,46,30.49,10.0,North,10.4,-,N/A,,Scattered Clouds,360,2012-12-21 12:52:00
6:52 AM,18.0,1.9,50,30.49,10.0,North,6.9,-,N/A,,Partly Cloudy,350,2012-12-21 13:52:00
7:52 AM,18.0,3.0,52,30.49,10.0,NNE,3.5,-,N/A,,Partly Cloudy,20,2012-12-21 14:52:00
8:52 AM,19.9,3.9,50,30.51,10.0,Calm,Calm,-,N/A,,Partly Cloudy,0,2012-12-21 15:52:00
9:52 AM,26.1,3.9,39,30.49,10.0,Calm,Calm,-,N/A,,Partly Cloudy,0,2012-12-21 16:52:00
10:52 AM,30.9,3.9,32,30.45,10.0,Calm,Calm,-,N/A,,Partly Cloudy,0,2012-12-21 17:52:00
11:52 AM,35.1,6.1,30,30.39,10.0,Calm,Calm,-,N/A,,Partly Cloudy,0,2012-12-21 18:52:00
12:52 PM,37.0,3.9,25,30.36,10.0,Calm,Calm,-,N/A,,Partly Cloudy,0,2012-12-21 19:52:00
1:52 PM,39.0,3.9,23,30.33,10.0,Calm,Calm,-,N/A,,Partly Cloudy,0,2012-12-21 20:52:00
2:52 PM,41.0,3.9,21,30.31,10.0,Calm,Calm,-,N/A,,Partly Cloudy,0,2012-12-21 21:52:00
3:52 PM,44.1,1.9,17,30.28,10.0,Calm,Calm,-,N/A,,Partly Cloudy,0,2012-12-21 22:52:00
4:52 PM,39.9,3.0,21,30.29,10.0,WSW,3.5,-,N/A,,Scattered Clouds,240,2012-12-21 23:52:00
5:52 PM,39.0,1.9,21,30.31,10.0,Calm,Calm,-,N/A,,Scattered Clouds,0,2012-12-22 00:52:00
6:52 PM,32.0,3.9,31,30.36,10.0,ESE,3.5,-,N/A,,Scattered Clouds,120,2012-12-22 01:52:00
7:52 PM,32.0,3.9,31,30.36,10.0,Calm,Calm,-,N/A,,Mostly Cloudy,0,2012-12-22 02:52:00
8:52 PM,33.1,5.0,31,30.35,10.0,WSW,3.5,-,N/A,,Scattered Clouds,250,2012-12-22 03:52:00
9:52 PM,28.9,6.1,38,30.35,10.0,North,3.5,-,N/A,,Scattered Clouds,360,2012-12-22 04:52:00
10:52 PM,28.0,7.0,41,30.34,10.0,North,4.6,-,N/A,,Mostly Cloudy,360,2012-12-22 05:52:00
11:52 PM,26.1,8.1,47,30.32,10.0,NW,5.8,-,N/A,,Mostly Cloudy,310,2012-12-22 06:52:00